Regional Weather Roundup
Issued by NWS Newport/Morehead, NC

Current Version | Previous Version | Text Only | Print | Product List | Glossary On
Versions: 1 2 3 4 5 6 7 8 9 10 11 12 13 14 15 16 17 18 19 20 21 22 23 24 25 26 27 28 29 30 31 32 33 34 35 36 37 38 39 40 41 42 43 44 45 46 47 48 49 50
000
ASUS42 KMHX 221522
RWRMHX
WEATHER ROUNDUP FOR EASTERN NORTH CAROLINA
NATIONAL WEATHER SERVICE NEWPORT/MOREHEAD CITY NC
1100 AM EDT TUE JUL 22 2014

NOTE: "FAIR" INDICATES FEW OR NO CLOUDS BELOW 12,000 FEET
WITH NO SIGNIFICANT WEATHER AND/OR OBSTRUCTIONS TO VISIBILITY

NCZ015>017-031-032-045>047-102-103-221600-
NORTH COAST

CITY           SKY/WX    TMP DP  RH WIND       PRES   REMARKS
EDENTON        CLOUDY    80  74  80 E9        30.16S
ELIZABETH CITY CLOUDY    80  72  76 E8        30.17R
KITTY HAWK     PTSUNNY   81  75  82 E6        30.15S
MANTEO         NOT AVBL

$$

NCZ045>047-081-094-103-104-221600-
CENTRAL COAST

CITY           SKY/WX    TMP DP  RH WIND       PRES   REMARKS
FRISCO         PTSUNNY   82  76  81 S7        30.16R
SWANQUARTER      N/A     82 N/A N/A S16       30.12S

$$

NCZ095-097-098-100-101-221600-
SOUTHERN COAST

CITY           SKY/WX    TMP DP  RH WIND       PRES   REMARKS
BEAUFORT       PTSUNNY   80  75  84 S9        30.14S
CEDAR ISLAND     N/A     81 N/A N/A SE14      30.18S
JACKSONVILLE   CLOUDY    80  74  81 NE3       30.14R
NEWPORT        NOT AVBL
PINEY ISLAND   CLOUDY    78  76  93 SE9       30.14S
WILMINGTON     CLOUDY    80  74  81 E5        30.12F


$$

NCZ011>013-027>030-043-044-078>080-089-090>093-098-221600-
COASTAL PLAIN

CITY           SKY/WX    TMP DP  RH WIND       PRES   REMARKS
AHOSKIE        MOSUNNY   79  70  72 E6        30.17S
CLINTON        CLOUDY    80  75  84 N3        30.15F
ELIZABETHTOWN  CLOUDY    77  77  99 N3        30.14F
GOLDSBORO      PTSUNNY   81  79  94 NE8       30.13F
GREENVILLE     CLOUDY    81  73  78 NE9       30.16S
HAVELOCK       HVY RAIN  77  73  87 SE9       30.15R FOG
KENANSVILLE    CLOUDY    77  73  87 E3        30.16S
KINSTON        PTSUNNY   81  73  78 NE5       30.15F
NEW BERN       PTSUNNY   84  73  70 CALM      30.15S
RICHLANDS      CLOUDY    77  72  83 N3        30.15R
ROANOKE RAPIDS NOT AVBL
ROCKY MOUNT    PTSUNNY   80  72  76 VRB7      30.17R
WASHINGTON     MOSUNNY   81  74  80 E7        30.15S
WHITEVILLE     CLOUDY    79  74  86 NE3       30.13S

$$

AMZ130-135-150-152-154-156-158-170-250-252-270-ANZ085-086-088-633-658-670-221600-
MARINE OBSERVATIONS

STATION/POSITION TIME  TEMP    WIND        PRES    WAVE   SWELL
                       AIR SEA DIR/SP/G            HT/PER HT/PER
                 (UTC) (F)     (DEG/KT/KT) (MB)    (FT/S) (FT/S)
CHESAPEAKE LIGHT NOT AVBL
BUOY 44014       1500   77 78   70/ 10/ 12 1021.2    3/ 8   3/ 8
DUCK             1500   76 74   70/ 10/ 12 1020.8
2E DUCK          1500                        N/A     2/11
OREGON INLET     1500   77 76   60/  5/  6 1021.3
BUOY 44095       1500      78                N/A     3/ 8
20E OREGON INLET NOT AVBL
HATTERAS CG      1500   80 80  150/  7/  9 1021.6
DIAMOND BUOY     1500          VRB 12/ 16  1021.0    4/ 8   2/ 8
CAPE LOOKOUT     1500   78     150/ 13/ 13 1020.7
BEAUFORT LAB     1500   79 80  170/  7/ 10 1020.2
30 SE NEW RIVER  1500   77 80  150/  8/ 10 1021.3    3/ 8   3/ 8
5 SE WRIGHTSVILL 1500   73 80  190/  6/  8   N/A
BUOY 41002       1425   82 82  180/ 12/ 16 1021.8    4/ 8   3/ 8
BUOY 41004       1500   78 82  310/  8/  8 1019.6    3/ 6   3/ 6

$$



USA.gov is the U.S. government's official web portal to all federal, state and local government web resources and services.